Regional Weather Roundup
Issued by NWS

Home | Current Version | Previous Version | Graphics & Text | Print | Product List | Glossary On
Versions: 1 2 3 4 5 6 7 8 9 10 11 12 13 14 15 16 17 18 19 20 21 22 23 24 25 26 27 28 29 30 31 32 33 34 35 36 37 38 39 40 41 42 43 44 45 46 47 48 49 50
000
ASUS43 KLMK 250102
RWRKY
KENTUCKY REGIONAL WEATHER ROUNDUP
NATIONAL WEATHER SERVICE LOUISVILLE KY
900 PM EDT THU MAY 24 2018

NOTE "FAIR" INDICATES FEW OR NO CLOUDS BELOW 12,000 FEET
WITH NO SIGNIFICANT WEATHER AND/OR OBSTRUCTIONS TO VISIBILITY.

KYZ001>023-026-027-061>063-070>075-250200-
WESTERN AND SOUTH CENTRAL KENTUCKY

CITY           SKY/WX    TMP DP  RH WIND       PRES   REMARKS
PADUCAH        FAIR      81  65  58 E5        30.02S
HENDERSON      NOT AVBL
OWENSBORO      FAIR      79  60  52 E6        30.04S
HOPKINSVILLE   FAIR      79  65  63 N3        30.03S
BOWLING GREEN  FAIR      80  65  59 NE3       30.04S
GLASGOW        NOT AVBL
$$

KYZ024-025-028>034-038-045-046-053-250200-
NORTH CENTRAL KENTUCKY

CITY           SKY/WX    TMP DP  RH WIND       PRES   REMARKS
LOUISVILLE/SDF FAIR      80  54  40 E6        30.05S
LOUISVILLE/LOU FAIR      78  57  48 NE6       30.06S
FORT KNOX      CLEAR     76  57  52 E3        30.07R
$$

KYZ035>037-039>044-047>052-055>060-089>105-250200-
NORTHEAST KENTUCKY

CITY           SKY/WX    TMP DP  RH WIND       PRES   REMARKS
LEXINGTON      FAIR      72  58  61 NE6       30.09R
COVINGTON      FAIR      73  56  54 SE5       30.08S
FRANKFORT      FAIR      72  58  61 CALM      30.07S
$$

KYZ054-064>069-076>088-106>120-250200-
SOUTHEAST KENTUCKY

CITY           SKY/WX    TMP DP  RH WIND       PRES   REMARKS
JACKSON        FAIR      74  60  61 CALM      30.10S
LONDON         FAIR      77  60  55 NE3       30.08R
SOMERSET       NOT AVBL
MIDDLESBORO    FAIR      75  67  74 CALM      30.08R
MONTICELLO     FAIR      73  65  75 N13       30.09R
$$





USA.gov is the U.S. government's official web portal to all federal, state and local government web resources and services.